Location: Ar Staon Vraz
(48.4167°N, 5.0000°W)
Time: 19:47:21
(UTC+00:00)

Daily predictions for brighter satellites

Satellite Brightness Start Highest point End
(mag) Time Altitude Azimuth Time Altitude Azimuth Time Altitude Azimuth
Cosmos 1943 Rocket 3.8 17:00:56 10° N 17:03:46 14° NNE 17:06:36 10° ENE
Cosmos 2322 Rocket 3.6 17:00:29 10° WSW 17:05:37 34° NW 17:10:46 10° NNE
Cosmos 1570 Rocket 4.1 17:01:08 10° S 17:06:22 65° ESE 17:11:37 10° NNE
PSLV R/B 3.9 17:02:28 10° SSE 17:06:34 82° ENE 17:10:42 10° NNW
SMAP 3.4 17:02:21 10° SE 17:06:44 43° ENE 17:11:09 10° N
PAYLOAD B 4.2 17:02:41 10° SSE 17:08:15 71° ENE 17:13:49 10° NNW
USA 281 4.0 17:03:44 10° E 17:09:07 28° NE 17:14:30 10° N
CZ-4C R/B 3.1 17:10:32 10° NNE 17:14:07 62° ESE 17:17:42 10° S
ATLAS 5 CENTAUR R/B 3.6 17:09:03 10° NW 17:14:33 49° WSW 17:20:52 10° SSE
MOS 1-B 4.4 17:09:22 10° SSE 17:15:10 87° ENE 17:21:02 10° NNW
CZ-4B DEB 4.3 17:11:34 10° SSE 17:17:05 85° WSW 17:22:36 10° NNW
CREW DRAGON DEMO-1 DEB 3.3 17:14:50 10° WNW 17:17:44 43° N 17:20:29 11° ENE
NOSS 0 Rocket 4.5 17:11:59 10° S 17:17:44 41° ESE 17:23:31 10° NE
Cosmos 405 2.9 17:16:07 10° S 17:19:34 64° E 17:23:03 10° NNE
Cosmos 389 Rocket 4.3 17:18:06 10° ESE 17:19:47 13° E 17:21:16 11° ENE
Cosmos 1606 4.3 17:17:13 10° SE 17:19:48 17° E 17:22:23 10° NE
Cosmos 2333 Rocket 2.3 17:15:00 10° SSW 17:20:42 87° WNW 17:26:25 10° NNE
Cosmos 2084 Rocket 4.3 17:17:49 10° WSW 17:21:46 42° NW 17:25:49 10° NNE
CZ-2C R/B 4.4 17:19:01 10° E 17:22:09 17° ENE 17:25:13 10° NNE
NOSS 2-1 (C) 4.3 17:18:43 10° NW 17:23:40 86° NE 17:30:40 10° SE
H-2A R/B 2.0 17:21:01 10° NNE 17:25:07 59° ESE 17:29:16 10° S
Radarsat Rocket 4.1 17:19:16 10° SSE 17:25:13 88° ENE 17:31:50 10° NNW
Cosmos 2074 Rocket 4.0 17:19:01 10° N 17:25:16 88° ENE 17:31:32 10° S
Cosmos 1607 4.4 17:19:34 10° SW 17:25:51 63° NW 17:32:17 10° NE
COSMOS 2428 2.7 17:20:14 10° SSW 17:25:58 82° ESE 17:31:44 10° NNE
Cosmos 372 Rocket 4.2 17:20:55 10° NNW 17:26:03 75° WSW 17:31:13 10° SSE
Landsat 5 3.6 17:23:42 10° NNE 17:28:03 83° ESE 17:32:31 10° SSW
Cosmos 724 4.3 17:22:56 10° SSW 17:28:48 74° ESE 17:34:51 10° NE
NOAA 6 4.3 17:23:41 10° S 17:28:50 76° WSW 17:34:01 10° NNW
NOSS 2-1 (D) 4.3 17:24:10 10° NW 17:29:08 88° SW 17:36:12 10° SE
Cosmos 2298 Rocket 4.0 17:24:21 10° NNW 17:29:41 76° ENE 17:34:59 10° SSE
Cosmos 1862 3.3 17:26:12 10° N 17:30:14 64° ENE 17:34:13 10° SSE
Cosmos 1818 3.6 17:25:06 10° NW 17:30:35 68° NE 17:36:01 10° SE
Cosmos 2150 Rocket 3.9 17:26:20 10° NNW 17:31:32 73° ENE 17:36:39 10° SSE
ADEOS Rocket 3.7 17:25:26 10° NNE 17:33:03 83° WNW 17:40:51 10° SSW
Cosmos 2278 Rocket 2.2 17:28:18 10° NNW 17:34:01 78° ENE 17:39:43 10° SSE
Cosmos 1633 Rocket 4.3 17:31:59 10° NNE 17:35:19 21° ENE 17:38:37 10° ESE
Cosmos 2184 Rocket 4.2 17:30:09 10° N 17:36:35 81° W 17:42:55 10° S
USA 215 3.6 17:32:16 12° ENE 17:38:16 50° SE 17:44:35 10° SSW
CZ-4 R/B 2.8 17:37:52 14° E 17:39:32 17° ENE 17:42:07 10° NNE
BREEZE-M DEB (TANK) 4.3 17:38:20 10° WSW 17:42:29 86° SSE 17:54:19 15° ENE
CZ-2D R/B 4.2 17:43:47 10° ESE 17:46:57 25° ENE 17:50:09 10° N
Cosmos 2360 Rocket 3.8 17:42:24 10° WSW 17:47:17 29° NW 17:52:11 10° NNE
BREEZE-M DEB (TANK) 3.4 17:45:53 10° SSW 17:48:02 20° SSE 17:48:48 17° ESE
Cosmos 482 Debris 3.7 17:47:00 10° WNW 17:48:35 25° N 17:48:41 25° N
Abrixas rocket 3.2 17:46:29 10° W 17:49:04 36° SSW 17:51:39 10° SE
Cosmos 1125 Rocket 3.4 17:44:02 10° NNW 17:49:15 73° ENE 17:54:27 10° SSE
Cosmos 1295 Rocket 4.4 17:43:27 10° N 17:49:36 73° E 17:55:48 10° SSE
Cosmos 2208 Rocket 4.3 17:44:35 10° SSW 17:49:50 70° WNW 17:55:12 10° NNE
Cosmos 1356 3.9 17:47:56 10° N 17:51:08 35° ENE 17:54:18 10° SE
Cosmos 44 4.2 17:47:31 10° NNW 17:52:13 33° NE 17:55:25 18° E
IRS-1C Rocket 4.4 17:47:33 10° SE 17:52:30 43° ENE 17:57:30 10° N
Cosmos 2221 3.2 17:48:27 10° SSW 17:52:44 58° WNW 17:57:02 10° N
Cosmos 1500 Rocket 4.1 17:49:08 10° NNW 17:53:29 63° W 17:57:50 10° S
Cosmos 1939 Rocket 3.1 17:50:06 10° SE 17:53:44 41° ENE 17:57:24 10° N
ERS-2 2.6 17:50:53 13° NNE 17:53:53 40° E 17:57:20 10° S
CSL-04 DEB 4.4 17:50:53 10° NNE 17:54:57 86° ESE 17:59:06 10° SSW
Cosmos 1900 4.4 17:49:57 10° SW 17:55:03 87° NW 17:59:39 13° NE
Cosmos 2219 Rocket 2.8 17:50:16 10° SW 17:55:49 55° WNW 18:01:23 10° NNE
ISS -3.0 17:54:32 10° SW 17:57:42 40° SSE 17:59:04 26° E
CZ-4B R/B 3.6 17:52:30 10° S 17:57:49 67° WSW 18:03:08 10° NNW
FengYun 1-2 T 4.2 17:55:47 10° SSE 18:01:21 88° ENE 18:06:54 10° NNW
CZ-4B R/B 1.2 18:00:04 20° NNE 18:01:58 55° ESE 18:05:00 10° S
SL-24 R/B - RUBIN 2 4.4 17:55:48 10° NW 18:02:13 82° SW 18:07:53 10° SSE
SL-16 R/B 4.5 17:59:01 10° WNW 18:02:16 15° NW 18:05:30 10° N
Cosmos 2237 Rocket 2.2 17:58:08 10° SSW 18:03:42 66° ESE 18:08:37 14° NNE
GENESIS II 4.1 17:59:57 10° NW 18:03:57 84° NE 18:07:52 10° SE
YAOGAN 1 3.4 18:03:52 21° ESE 18:05:34 28° ENE 18:09:16 10° N
NOAA 11 4.2 18:00:18 10° SSE 18:05:44 90° ENE 18:11:13 10° NNW
YAOGAN 3 4.5 18:05:41 10° SSE 18:10:00 67° ENE 18:14:21 10° N
Okean-O 3.1 18:07:06 10° SE 18:11:11 37° ENE 18:15:16 10° N
USA 267 3.2 18:05:50 11° ESE 18:12:11 80° NNE 18:18:44 10° NW
COSMO-SKYMED 1 2.8 18:10:59 16° NNE 18:14:13 48° E 18:18:25 10° S
SL-24 R/B 4.3 18:13:04 27° NE 18:14:39 38° E 18:18:15 10° SSE
USA 81 4.1 18:10:38 10° N 18:15:49 52° E 18:20:58 10° SSE
Cosmos 2218 Rocket 4.1 18:10:03 10° N 18:16:03 51° ENE 18:22:00 10° SSE
Cosmos 2369 Rocket 3.3 18:11:28 10° N 18:16:05 24° NE 18:16:39 24° NE
CSL-04 Rocket 4.3 18:18:44 28° E 18:20:04 32° ENE 18:24:44 10° N
Cosmos 1980 3.7 18:15:56 10° SSW 18:21:37 88° WNW 18:26:25 15° NNE
Okean O Rocket 3.1 18:20:15 10° SSW 18:24:18 38° W 18:28:24 10° NNW
H-2A R/B 2.5 18:23:36 24° ESE 18:26:09 38° ENE 18:30:56 10° N
CZ-4 R/B 4.3 18:22:02 10° SSE 18:26:09 68° ENE 18:30:17 10° N
Sich 1 3.3 18:22:48 10° NNW 18:27:13 72° W 18:31:34 10° S
Cosmos 2366 rocket 3.9 18:22:23 10° N 18:28:34 60° ENE 18:34:38 10° SSE
Cosmos 1933 3.3 18:26:30 10° S 18:30:28 58° E 18:31:27 43° NE
PSLV R/B 4.0 18:30:52 48° E 18:31:12 50° E 18:35:07 10° S
Cosmos 1932 4.5 18:27:29 10° SSW 18:34:01 80° SE 18:37:56 26° NE
SKYMED 3 4.4 18:35:19 20° NNE 18:38:20 84° ESE 18:42:40 10° SSW
Cosmos 2297 3.6 18:34:21 10° NNW 18:40:03 73° ENE 18:44:22 18° SE
Cosmos 1666 Rocket 3.6 18:37:26 10° NNW 18:41:50 79° W 18:46:15 10° S
Helios 1A Rocket 2.7 18:39:39 19° SSE 18:42:29 74° ENE 18:46:32 10° N
Cosmos 1151 Rocket 2.8 18:42:10 10° S 18:46:26 70° E 18:46:45 66° ENE
SL-24 DEB 4.1 18:43:34 10° N 18:48:21 68° E 18:53:04 10° S
Cosmos 1943 Rocket 2.2 18:43:26 10° NNW 18:48:52 53° ENE 18:49:29 50° E
Meteor 1-26 Rocket 4.3 18:43:22 10° S 18:49:16 61° E 18:53:30 20° NNE
Cosmos 1328 Rocket 3.5 18:45:07 10° S 18:48:55 61° SE 18:48:55 61° SE
Cosmos 2341 Rocket 4.4 18:43:54 10° NNW 18:50:05 63° W 18:56:18 10° S
SL-16 R/B 2.2 18:45:18 10° S 18:50:49 58° ESE 18:51:51 50° ENE
USA 281 3.3 18:46:28 10° SSE 18:53:02 80° WSW 18:59:39 10° NNW
CREW DRAGON DEMO-1 DEB 4.4 18:50:21 10° WNW 18:52:11 33° WNW 18:52:11 33° WNW
Cosmos 389 Rocket 3.6 18:50:49 10° SSW 18:54:06 42° WNW 18:55:08 32° NNW
MOS 1 Rocket 3.6 18:53:31 47° NE 18:54:50 60° E 19:00:13 10° S
Cosmos 1606 3.9 18:51:28 10° SSW 18:55:11 42° WNW 18:58:06 15° N
ARGOS 3.5 18:57:17 45° NE 18:57:17 45° NE 19:01:37 10° N
CZ-2C R/B 3.0 18:56:17 10° SSE 19:01:29 81° WSW 19:06:26 10° NNW
SKYMED 2 4.1 18:59:37 21° N 19:02:19 56° WNW 19:06:34 10° SSW
Cosmos 2333 Rocket 4.3 19:01:36 10° W 19:05:48 21° NW 19:10:02 10° N
Cosmos 2285 Rocket 4.0 18:59:44 10° NNW 19:06:12 83° WSW 19:12:33 10° SSE
Cosmos 1867 3.4 19:02:10 10° SSW 19:07:36 85° SE 19:08:14 70° NE
Lacrosse 5 rocket 3.6 19:08:23 10° SSW 19:08:55 13° SSW 19:08:55 13° SSW
Cosmos 1633 Rocket 4.1 19:09:10 10° NNW 19:13:21 45° W 19:17:31 10° SSW
CZ-4 R/B 2.1 19:13:54 50° WSW 19:14:10 51° W 19:18:04 10° NNW
USA 215 3.4 19:19:37 48° NE 19:21:28 68° NNW 19:27:57 10° WSW
Cosmos 1821 Rocket 4.2 19:25:08 10° N 19:30:01 57° N 19:30:01 57° N
Cosmos 44 3.9 19:28:36 10° NW 19:33:48 60° WSW 19:33:53 60° SW
ISS -0.8 19:31:07 10° W 19:32:02 17° W 19:32:02 17° W
CSL-04 Debris 4.4 19:33:38 46° SSW 19:35:09 67° WSW 19:40:40 10° NNW
YAOGAN 1 4.1 19:41:01 33° WSW 19:41:33 34° W 19:45:32 10° NNW
Cosmos 2237 Rocket 4.0 19:43:31 10° WSW 19:48:15 27° NW 19:50:28 21° N
USA 267 4.3 19:53:12 29° S 19:55:35 38° SW 20:01:36 10° WNW
Cosmos 2369 Rocket 3.3 19:55:01 10° NNW 19:58:28 38° NW 19:58:28 38° NW
H-2A R/B 3.5 20:04:14 31° SW 20:05:35 35° W 20:10:23 10° NNW
Cosmos 1943 Rocket 4.1 20:27:39 10° NW 20:31:04 26° W 20:31:04 26° W
SL-16 R/B 4.1 20:30:23 10° WSW 20:33:46 26° WNW 20:33:46 26° WNW
